�������l�o���
Date,Time,MP-1(��Sv/h),MP-2(��Sv/h),MP-3(��Sv/h),MP-4(��Sv/h),MP-5(��Sv/h),MP-6(��Sv/h),MP-7(��Sv/h),MP-8(��Sv/h),����,����(m/s),���J
2018/06/01,00:00,0.830,1.212,0.846,1.544,1.075,0.469,0.825,0.790,�k��,4.9,�L
2018/06/01,00:10,0.829,1.213,0.846,1.540,1.076,0.471,0.825,0.791,�k��,5.2,�L
2018/06/01,00:20,0.830,1.215,0.847,1.542,1.074,0.470,0.825,0.790,���k��,6.9,�L
2018/06/01,00:30,0.829,1.216,0.847,1.540,1.072,0.471,0.826,0.790,���k��,6.1,�L
2018/06/01,00:40,0.831,1.214,0.848,1.543,1.071,0.471,0.827,0.791,���k��,5.1,��
2018/06/01,00:50,0.829,1.213,0.846,1.543,1.074,0.470,0.825,0.788,���k��,4.7,��
2018/06/01,01:00,0.830,1.217,0.848,1.542,1.074,0.470,0.826,0.792,���k��,5.9,�L
2018/06/01,01:10,0.830,1.214,0.847,1.541,1.074,0.469,0.824,0.788,���k��,6.6,�L
2018/06/01,01:20,0.830,1.212,0.846,1.540,1.076,0.471,0.827,0.790,���k��,7.6,�L
2018/06/01,01:30,0.830,1.213,0.849,1.546,1.075,0.471,0.826,0.788,�k��,6.6,�L
2018/06/01,01:40,0.833,1.216,0.849,1.543,1.074,0.472,0.826,0.790,�k��,7.0,�L
2018/06/01,01:50,0.830,1.214,0.848,1.545,1.072,0.471,0.827,0.790,���k��,6.5,��
2018/06/01,02:00,0.829,1.214,0.850,1.543,1.072,0.470,0.827,0.790,�k��,4.9,��
2018/06/01,02:10,0.830,1.214,0.847,1.544,1.074,0.469,0.827,0.790,�k�k��,4.8,�L
2018/06/01,02:20,0.830,1.214,0.849,1.542,1.073,0.471,0.826,0.790,�k�k��,5.2,��
2018/06/01,02:30,0.830,1.214,0.848,1.545,1.074,0.471,0.827,0.790,�k�k��,7.3,�L
2018/06/01,02:40,0.828,1.214,0.847,1.542,1.074,0.469,0.826,0.790,�k�k��,6.5,��
2018/06/01,02:50,0.830,1.213,0.848,1.546,1.073,0.471,0.827,0.790,�k�k��,5.2,�L
2018/06/01,03:00,0.830,1.214,0.848,1.545,1.072,0.470,0.827,0.789,�k�k��,4.8,�L
2018/06/01,03:10,0.830,1.214,0.846,1.544,1.074,0.469,0.827,0.791,�k�k��,5.4,��
2018/06/01,03:20,0.832,1.213,0.846,1.543,1.072,0.469,0.827,0.790,�k�k��,5.8,��
2018/06/01,03:30,0.829,1.216,0.848,1.545,1.074,0.469,0.827,0.791,�k��,6.8,��
2018/06/01,03:40,0.828,1.213,0.849,1.545,1.073,0.471,0.827,0.789,�k��,6.1,��
2018/06/01,03:50,0.831,1.214,0.847,1.547,1.073,0.471,0.829,0.791,�k��,3.8,��
2018/06/01,04:00,0.829,1.216,0.846,1.542,1.074,0.471,0.827,0.791,�k��,5.0,��
2018/06/01,04:10,0.829,1.214,0.846,1.546,1.071,0.469,0.825,0.790,�k��,4.2,��
2018/06/01,04:20,0.829,1.214,0.848,1.550,1.073,0.470,0.828,0.791,�k��,6.0,��
2018/06/01,04:30,0.828,1.216,0.847,1.544,1.071,0.470,0.827,0.790,�k��,5.1,��
2018/06/01,04:40,0.830,1.215,0.847,1.543,1.074,0.468,0.826,0.791,�k��,4.5,��
2018/06/01,04:50,0.828,1.217,0.848,1.546,1.074,0.468,0.826,0.791,�k�k��,3.2,��
2018/06/01,05:00,0.831,1.214,0.845,1.546,1.071,0.469,0.826,0.792,�k�k��,3.4,��
2018/06/01,05:10,0.828,1.215,0.845,1.548,1.074,0.468,0.825,0.790,�k��,4.2,��
2018/06/01,05:20,0.828,1.216,0.848,1.545,1.073,0.471,0.826,0.790,�k��,4.2,��
2018/06/01,05:30,0.831,1.216,0.847,1.547,1.074,0.469,0.825,0.791,�k��,5.2,��
2018/06/01,05:40,0.829,1.214,0.847,1.545,1.072,0.470,0.827,0.790,�k��,5.9,��
2018/06/01,05:50,0.832,1.216,0.847,1.548,1.075,0.469,0.827,0.791,�k��,5.0,��
2018/06/01,06:00,0.830,1.215,0.846,1.547,1.077,0.469,0.826,0.789,�k��,6.1,��
2018/06/01,06:10,0.832,1.219,0.848,1.548,1.075,0.469,0.829,0.792,�k�k��,4.9,��
2018/06/01,06:20,0.833,1.218,0.848,1.550,1.075,0.470,0.828,0.792,�k��,4.2,��
2018/06/01,06:30,0.832,1.219,0.848,1.553,1.075,0.470,0.827,0.791,�k��,4.7,��
2018/06/01,06:40,0.832,1.213,0.848,1.550,1.072,0.469,0.828,0.793,�k��,6.0,��
2018/06/01,06:50,0.831,1.214,0.849,1.551,1.073,0.470,0.828,0.791,�k�k��,5.9,��
2018/06/01,07:00,0.831,1.217,0.848,1.550,1.075,0.468,0.827,0.790,�k�k��,6.1,��
2018/06/01,07:10,0.832,1.217,0.849,1.552,1.074,0.467,0.827,0.793,�k�k��,7.1,��
2018/06/01,07:20,0.831,1.215,0.850,1.552,1.077,0.468,0.828,0.792,�k�k��,6.6,��
2018/06/01,07:30,0.832,1.215,0.849,1.554,1.075,0.469,0.826,0.793,�k��,8.0,��
2018/06/01,07:40,0.834,1.217,0.849,1.554,1.075,0.467,0.825,0.791,�k��,4.9,��
2018/06/01,07:50,0.832,1.219,0.851,1.556,1.076,0.467,0.824,0.790,�k�k��,5.2,��
2018/06/01,08:00,0.835,1.218,0.853,1.553,1.076,0.469,0.827,0.791,�k��,6.4,��
2018/06/01,08:10,0.832,1.219,0.851,1.554,1.077,0.468,0.827,0.790,�k��,5.8,��
2018/06/01,08:20,0.832,1.218,0.851,1.555,1.076,0.467,0.826,0.790,�k�k��,6.2,��
2018/06/01,08:30,0.832,1.219,0.850,1.555,1.079,0.463,0.826,0.788,�k��,6.1,��
2018/06/01,08:40,0.831,1.218,0.852,1.557,1.079,0.463,0.829,0.790,�k��,5.6,��
2018/06/01,08:50,0.831,1.219,0.851,1.556,1.079,0.462,0.829,0.790,�k��,5.6,��
2018/06/01,09:00,0.831,1.219,0.852,1.557,1.081,0.467,0.828,0.790,�k��,7.2,��
2018/06/01,09:10,0.832,1.220,0.851,1.558,1.079,0.469,0.830,0.791,�k�k��,5.1,��
2018/06/01,09:20,0.832,1.221,0.851,1.558,1.079,0.469,0.829,0.790,�k��,8.0,��
2018/06/01,09:30,0.832,1.223,0.849,1.556,1.081,0.469,0.827,0.791,�k��,6.9,��
2018/06/01,09:40,0.831,1.223,0.851,1.560,1.081,0.471,0.829,0.790,�k��,7.5,��
2018/06/01,09:50,0.836,1.223,0.854,1.560,1.081,0.470,0.829,0.792,�k��,7.0,��
2018/06/01,10:00,0.836,1.226,0.851,1.558,1.081,0.469,0.828,0.790,�k��,5.8,��
2018/06/01,10:10,0.836,1.231,0.850,1.560,1.082,0.469,0.828,0.790,�k��,4.5,��
2018/06/01,10:20,0.837,1.230,0.853,1.560,1.084,0.469,0.830,0.790,�k��,3.3,��
2018/06/01,10:30,0.836,1.229,0.854,1.559,1.083,0.470,0.828,0.789,�k��,4.1,�L
2018/06/01,10:40,0.837,1.226,0.851,1.561,1.084,0.470,0.830,0.789,�k��,4.8,��
2018/06/01,10:50,0.838,1.230,0.853,1.560,1.083,0.469,0.829,0.792,�k��,4.2,��
2018/06/01,11:00,0.838,1.229,0.854,1.559,1.084,0.469,0.830,0.790,�k��,4.5,��
2018/06/01,11:10,0.837,1.230,0.854,1.561,1.086,0.470,0.827,0.791,�k��,3.9,��
2018/06/01,11:20,0.837,1.230,0.857,1.562,1.086,0.468,0.830,0.790,�k��,4.8,��
2018/06/01,11:30,0.835,1.229,0.855,1.560,1.088,0.470,0.832,0.790,�k��,4.7,��
2018/06/01,11:40,0.840,1.232,0.854,1.561,1.089,0.471,0.830,0.790,�k��,4.6,��
2018/06/01,11:50,0.837,1.228,0.853,1.561,1.086,0.470,0.829,0.790,�k�k��,4.7,��
2018/06/01,12:00,0.837,1.229,0.851,1.560,1.083,0.471,0.829,0.790,�k��,4.0,��
2018/06/01,12:10,0.835,1.231,0.855,1.565,1.087,0.470,0.829,0.790,�k��,4.6,��
2018/06/01,12:20,0.835,1.230,0.856,1.561,1.089,0.470,0.830,0.792,�k��,4.5,��
2018/06/01,12:30,0.835,1.232,0.854,1.560,1.088,0.470,0.827,0.792,�k��,3.7,��
2018/06/01,12:40,0.837,1.231,0.855,1.561,1.087,0.470,0.831,0.790,�k�k��,4.4,��
2018/06/01,12:50,0.836,1.235,0.854,1.561,1.087,0.470,0.829,0.792,�k��,4.0,��
2018/06/01,13:00,0.835,1.230,0.855,1.560,1.089,0.470,0.830,0.792,�k�k��,3.5,��
2018/06/01,13:10,0.838,1.237,0.857,1.561,1.090,0.471,0.830,0.789,�k�k��,3.6,��
2018/06/01,13:20,0.836,1.232,0.854,1.565,1.093,0.470,0.829,0.791,�k�k��,2.9,��
2018/06/01,13:30,0.838,1.236,0.854,1.563,1.090,0.469,0.830,0.793,�k,4.3,��
2018/06/01,13:40,0.840,1.233,0.854,1.564,1.090,0.472,0.830,0.792,�k,5.5,��
2018/06/01,13:50,0.841,1.237,0.856,1.564,1.090,0.470,0.831,0.792,�k�k��,5.6,��
2018/06/01,14:00,0.842,1.237,0.857,1.566,1.092,0.471,0.830,0.791,�k�k��,4.5,��
2018/06/01,14:10,0.844,1.242,0.857,1.567,1.092,0.471,0.830,0.790,�k��,3.0,��
2018/06/01,14:20,0.844,1.239,0.857,1.563,1.093,0.471,0.829,0.792,�k��,3.0,��
2018/06/01,14:30,0.842,1.239,0.857,1.564,1.093,0.471,0.831,0.791,���k��,3.0,��
2018/06/01,14:40,0.844,1.238,0.858,1.564,1.093,0.471,0.832,0.792,���k��,2.9,��
2018/06/01,14:50,0.843,1.236,0.858,1.565,1.090,0.471,0.831,0.790,�k��,3.1,��
2018/06/01,15:00,0.846,1.240,0.859,1.567,1.093,0.471,0.831,0.789,�k��,2.3,��
2018/06/01,15:10,0.845,1.234,0.860,1.569,1.094,0.471,0.831,0.792,�k��,2.6,��
2018/06/01,15:20,0.844,1.243,0.857,1.567,1.093,0.470,0.830,0.793,�k��,3.4,��
2018/06/01,15:30,0.843,1.238,0.858,1.566,1.092,0.472,0.830,0.791,�k�k��,3.1,��
2018/06/01,15:40,0.840,1.239,0.859,1.570,1.092,0.471,0.831,0.790,�k�k��,2.0,��
2018/06/01,15:50,0.843,1.244,0.859,1.571,1.092,0.472,0.831,0.791,�k�k��,2.3,��
2018/06/01,16:00,0.844,1.245,0.857,1.569,1.094,0.469,0.831,0.792,�k�k��,2.3,��
2018/06/01,16:10,0.846,1.245,0.858,1.571,1.092,0.471,0.832,0.792,�k,3.0,��
2018/06/01,16:20,0.847,1.244,0.859,1.570,1.093,0.471,0.831,0.792,�k,2.9,��
2018/06/01,16:30,0.843,1.243,0.857,1.569,1.096,0.470,0.831,0.793,�k��,0.9,��
2018/06/01,16:40,0.845,1.244,0.855,1.571,1.094,0.469,0.830,0.792,�k��,1.2,��
2018/06/01,16:50,0.844,1.243,0.857,1.569,1.095,0.470,0.830,0.791,�k�k��,2.3,��
2018/06/01,17:00,0.844,1.246,0.857,1.569,1.093,0.470,0.832,0.792,���k��,1.7,��
2018/06/01,17:10,0.844,1.245,0.857,1.569,1.093,0.470,0.829,0.791,��,1.2,��
2018/06/01,17:20,0.843,1.247,0.859,1.573,1.092,0.470,0.830,0.792,�k��,1.7,��
2018/06/01,17:30,0.843,1.246,0.859,1.575,1.093,0.470,0.830,0.793,�k��,1.7,��
2018/06/01,17:40,0.844,1.249,0.859,1.574,1.092,0.472,0.829,0.792,���쓌,1.7,��
2018/06/01,17:50,0.843,1.248,0.860,1.573,1.093,0.471,0.829,0.792,-,CALM,��
2018/06/01,18:00,0.844,1.248,0.858,1.573,1.093,0.470,0.830,0.792,��,0.6,��
2018/06/01,18:10,0.846,1.246,0.858,1.573,1.092,0.470,0.831,0.791,��쓌,1.4,��
2018/06/01,18:20,0.846,1.248,0.859,1.571,1.095,0.471,0.831,0.794,��쓌,2.0,��
2018/06/01,18:30,0.845,1.249,0.861,1.569,1.097,0.472,0.830,0.794,��쓌,1.7,��
2018/06/01,18:40,0.845,1.248,0.859,1.571,1.098,0.471,0.829,0.794,��쓌,1.5,��
2018/06/01,18:50,0.847,1.250,0.860,1.572,1.096,0.474,0.828,0.795,��,1.4,��
2018/06/01,19:00,0.847,1.249,0.861,1.573,1.097,0.472,0.829,0.794,��쐼,1.1,��
2018/06/01,19:10,0.846,1.249,0.861,1.572,1.097,0.472,0.830,0.793,��쐼,1.5,��
2018/06/01,19:20,0.845,1.251,0.861,1.574,1.097,0.474,0.828,0.794,��쐼,1.1,��
2018/06/01,19:30,0.845,1.248,0.861,1.576,1.097,0.472,0.829,0.794,��,0.9,��
2018/06/01,19:40,0.845,1.245,0.861,1.574,1.094,0.474,0.831,0.795,�쐼,0.6,��
2018/06/01,19:50,0.845,1.248,0.861,1.574,1.097,0.473,0.831,0.795,�쐼,1.1,��
2018/06/01,20:00,0.845,1.248,0.859,1.570,1.095,0.472,0.831,0.794,���쐼,0.8,��
2018/06/01,20:10,0.846,1.246,0.860,1.572,1.095,0.473,0.832,0.792,��,0.6,��
2018/06/01,20:20,0.844,1.248,0.862,1.572,1.094,0.473,0.832,0.792,���쐼,0.6,��
2018/06/01,20:30,0.844,1.246,0.861,1.572,1.098,0.473,0.831,0.794,�쐼,0.9,��
2018/06/01,20:40,0.844,1.249,0.860,1.573,1.094,0.473,0.831,0.793,�쐼,1.1,��
2018/06/01,20:50,0.844,1.249,0.863,1.575,1.098,0.473,0.833,0.795,��쐼,1.7,��
2018/06/01,21:00,0.844,1.249,0.861,1.574,1.098,0.474,0.832,0.793,�쐼,1.9,��
2018/06/01,21:10,0.845,1.248,0.860,1.575,1.096,0.475,0.831,0.792,�쐼,1.7,��
2018/06/01,21:20,0.844,1.245,0.860,1.572,1.094,0.473,0.832,0.794,�쐼,2.0,��
2018/06/01,21:30,0.844,1.245,0.862,1.574,1.094,0.474,0.832,0.793,�쐼,2.0,��
2018/06/01,21:40,0.844,1.247,0.860,1.574,1.098,0.473,0.833,0.792,��쐼,1.5,��
2018/06/01,21:50,0.844,1.247,0.860,1.572,1.097,0.472,0.832,0.796,��쐼,2.8,��
2018/06/01,22:00,0.841,1.247,0.860,1.573,1.094,0.473,0.830,0.793,��쐼,3.2,��
2018/06/01,22:10,0.844,1.248,0.859,1.575,1.095,0.474,0.832,0.795,��쐼,3.1,��
2018/06/01,22:20,0.842,1.246,0.860,1.572,1.096,0.474,0.832,0.793,��쐼,3.0,��
2018/06/01,22:30,0.844,1.246,0.859,1.573,1.094,0.473,0.833,0.793,��쐼,2.8,��
2018/06/01,22:40,0.844,1.243,0.860,1.573,1.096,0.473,0.833,0.794,��쐼,3.0,��
2018/06/01,22:50,0.843,1.245,0.860,1.574,1.094,0.472,0.831,0.793,��쐼,3.2,��
2018/06/01,23:00,0.842,1.244,0.861,1.574,1.095,0.473,0.832,0.793,��쐼,3.1,��
2018/06/01,23:10,0.843,1.245,0.858,1.573,1.092,0.471,0.832,0.793,��쐼,2.6,��
2018/06/01,23:20,0.844,1.246,0.860,1.572,1.094,0.474,0.831,0.793,��쐼,2.3,��
2018/06/01,23:30,0.843,1.246,0.862,1.573,1.097,0.472,0.832,0.793,��쐼,2.0,��
2018/06/01,23:40,0.843,1.244,0.862,1.572,1.097,0.475,0.833,0.794,��쐼,1.7,��
2018/06/01,23:50,0.844,1.244,0.860,1.574,1.096,0.474,0.833,0.793,��,1.9,��
